BAW8648 LFSB-LFPO

Flight info

Callsign BAW8648
Flight time 0h 41m
Altitude 31000
Route MOROK8T MOROK L856 PENDU DCT JAVVU DCT DJL DJL9W
Aircraft A320/M-SDE3FGIJ1KRWXY/SB1

Departure

Time 2026-04-30 18:04
Airport EuroAirport Basel–Mulhouse–Freiburg (LFSB)

Arrival

Time 2026-04-30 18:45
Airport Paris-Orly Airport (LFPO)
Time Latitude Longitude Altitude Speed Heading
2026-04-30 17:39 47.59868 7.52809 890 ft 0 kts 64°
2026-04-30 17:53 47.59854 7.52762 890 ft 4 kts 65°
2026-04-30 17:54 47.59815 7.52738 890 ft 0 kts 334°
2026-04-30 17:59 47.59845 7.52633 890 ft 9 kts 293°
2026-04-30 18:00 47.60161 7.52403 890 ft 17 kts 335°
2026-04-30 18:00 47.60545 7.52135 882 ft 22 kts 334°
2026-04-30 18:01 47.60822 7.51943 881 ft 17 kts 334°
2026-04-30 18:02 47.61077 7.51670 874 ft 13 kts 246°
2026-04-30 18:02 47.60965 7.51546 878 ft 12 kts 155°
2026-04-30 18:03 47.58976 7.52936 1073 ft 164 kts 154°
2026-04-30 18:04 47.55755 7.53277 2820 ft 191 kts 227°
2026-04-30 18:05 47.53867 7.45275 4921 ft 246 kts 252°
2026-04-30 18:06 47.52064 7.34148 7645 ft 297 kts 257°
2026-04-30 18:07 47.50150 7.21983 10707 ft 326 kts 256°
2026-04-30 18:08 47.48471 7.11557 12321 ft 357 kts 257°
2026-04-30 18:09 47.46075 6.96995 14969 ft 372 kts 255°
2026-04-30 18:10 47.43021 6.82048 17338 ft 388 kts 253°
2026-04-30 18:11 47.39843 6.66378 19041 ft 418 kts 257°
2026-04-30 18:11 47.38780 6.53432 20537 ft 429 kts 264°
2026-04-30 18:12 47.37782 6.40150 21905 ft 439 kts 264°
2026-04-30 18:13 47.37073 6.31131 22745 ft 446 kts 264°
2026-04-30 18:13 47.36001 6.17374 23937 ft 454 kts 264°
2026-04-30 18:14 47.35270 6.08053 24688 ft 460 kts 264°
2026-04-30 18:15 47.34227 5.93882 25826 ft 467 kts 271°
2026-04-30 18:15 47.37429 5.80591 26897 ft 469 kts 301°
2026-04-30 18:16 47.40658 5.72188 27592 ft 473 kts 301°
2026-04-30 18:16 47.43901 5.63691 28334 ft 475 kts 301°
2026-04-30 18:17 47.45514 5.59433 28823 ft 474 kts 301°
2026-04-30 18:17 47.47115 5.55190 29315 ft 472 kts 300°
2026-04-30 18:17 47.50305 5.46734 30267 ft 470 kts 300°
2026-04-30 18:18 47.51895 5.42515 30729 ft 468 kts 300°
2026-04-30 18:18 47.53477 5.38305 31069 ft 468 kts 300°
2026-04-30 18:18 47.55059 5.34093 31135 ft 470 kts 300°
2026-04-30 18:19 47.58247 5.25586 31145 ft 473 kts 300°
2026-04-30 18:19 47.61439 5.17062 31147 ft 473 kts 300°
2026-04-30 18:20 47.64619 5.08525 31146 ft 473 kts 300°
2026-04-30 18:20 47.67795 4.99967 31148 ft 474 kts 300°
2026-04-30 18:21 47.70968 4.91394 31148 ft 474 kts 300°
2026-04-30 18:21 47.74130 4.82813 31146 ft 474 kts 300°
2026-04-30 18:22 47.77297 4.74211 31144 ft 475 kts 300°
2026-04-30 18:22 47.82044 4.61283 31144 ft 475 kts 299°
2026-04-30 18:23 47.85194 4.52627 31144 ft 476 kts 299°
2026-04-30 18:23 47.88348 4.43944 31145 ft 477 kts 299°
2026-04-30 18:24 47.93076 4.30892 31144 ft 478 kts 299°
2026-04-30 18:25 47.96224 4.22158 31151 ft 478 kts 298°
2026-04-30 18:25 48.00936 4.09016 31147 ft 479 kts 298°
2026-04-30 18:26 48.05646 3.95830 31151 ft 480 kts 298°
2026-04-30 18:27 48.10354 3.82626 31163 ft 480 kts 298°
2026-04-30 18:28 48.15038 3.69378 31161 ft 480 kts 298°
2026-04-30 18:28 48.19691 3.56129 30708 ft 478 kts 298°
2026-04-30 18:29 48.21253 3.51686 29403 ft 489 kts 298°
2026-04-30 18:29 48.26019 3.38072 25940 ft 502 kts 298°
2026-04-30 18:30 48.29275 3.28719 23158 ft 490 kts 298°
2026-04-30 18:30 48.32333 3.19882 20723 ft 461 kts 298°
2026-04-30 18:31 48.33799 3.15632 19936 ft 456 kts 297°
2026-04-30 18:31 48.36692 3.07242 18267 ft 448 kts 297°
2026-04-30 18:32 48.39525 2.99004 16731 ft 438 kts 297°
2026-04-30 18:32 48.40915 2.94952 15996 ft 433 kts 297°
2026-04-30 18:32 48.43643 2.86993 14647 ft 423 kts 297°
2026-04-30 18:33 48.44844 2.82972 13950 ft 419 kts 289°
2026-04-30 18:33 48.45783 2.74459 12573 ft 409 kts 271°
2026-04-30 18:33 48.45895 2.70195 11931 ft 400 kts 272°
2026-04-30 18:34 48.46298 2.66075 10930 ft 391 kts 285°
2026-04-30 18:34 48.47872 2.58516 9958 ft 358 kts 287°
2026-04-30 18:34 48.48631 2.55024 9830 ft 343 kts 287°
2026-04-30 18:35 48.49355 2.51716 9704 ft 330 kts 287°
2026-04-30 18:35 48.50074 2.48450 9573 ft 318 kts 287°
2026-04-30 18:35 48.50763 2.45341 9452 ft 307 kts 287°
2026-04-30 18:36 48.52087 2.39398 9036 ft 294 kts 287°
2026-04-30 18:36 48.52740 2.36490 8726 ft 292 kts 287°
2026-04-30 18:36 48.54037 2.30722 8088 ft 289 kts 287°
2026-04-30 18:37 48.54678 2.27859 7760 ft 288 kts 287°
2026-04-30 18:37 48.55311 2.25004 7441 ft 286 kts 287°
2026-04-30 18:37 48.55937 2.22167 6997 ft 283 kts 287°
2026-04-30 18:37 48.56554 2.19356 6406 ft 281 kts 287°
2026-04-30 18:38 48.57251 2.16614 5797 ft 280 kts 295°
2026-04-30 18:38 48.58039 2.14258 5262 ft 278 kts 297°
2026-04-30 18:38 48.58931 2.11673 4667 ft 277 kts 299°
2026-04-30 18:38 48.60068 2.09458 4477 ft 259 kts 321°
2026-04-30 18:39 48.61565 2.08171 4181 ft 241 kts 351°
2026-04-30 18:39 48.63162 2.08409 3742 ft 226 kts 33°
2026-04-30 18:39 48.64218 2.09982 3507 ft 208 kts 60°
2026-04-30 18:39 48.64943 2.11856 3241 ft 204 kts 65°
2026-04-30 18:40 48.65612 2.13735 2975 ft 202 kts 66°
2026-04-30 18:40 48.66298 2.15666 2689 ft 197 kts 65°
2026-04-30 18:40 48.66944 2.17478 2433 ft 190 kts 65°
2026-04-30 18:40 48.67558 2.19200 2204 ft 182 kts 65°
2026-04-30 18:41 48.68143 2.20843 1951 ft 171 kts 64°
2026-04-30 18:41 48.68680 2.22352 1732 ft 155 kts 63°
2026-04-30 18:41 48.69160 2.23703 1540 ft 140 kts 63°
2026-04-30 18:41 48.69612 2.24976 1350 ft 135 kts 63°
2026-04-30 18:42 48.69927 2.25864 1223 ft 134 kts 63°
2026-04-30 18:42 48.70778 2.28258 886 ft 132 kts 64°
2026-04-30 18:42 48.71214 2.29487 717 ft 133 kts 63°
2026-04-30 18:45 48.72905 2.35454 291 ft 13 kts 82°
2026-04-30 18:45 48.72863 2.35555 293 ft 14 kts 162°
2026-04-30 18:45 48.72760 2.35599 295 ft 17 kts 165°
2026-04-30 18:46 48.72637 2.35651 293 ft 20 kts 165°
2026-04-30 18:46 48.72512 2.35705 294 ft 15 kts 157°
2026-04-30 18:46 48.72477 2.35831 296 ft 15 kts 96°
2026-04-30 18:46 48.72467 2.35990 294 ft 16 kts 89°
2026-04-30 18:47 48.72495 2.36166 293 ft 18 kts 73°
2026-04-30 18:47 48.72531 2.36367 293 ft 21 kts 75°
2026-04-30 18:47 48.72570 2.36579 291 ft 16 kts 75°
2026-04-30 18:47 48.72605 2.36720 294 ft 14 kts 69°
2026-04-30 18:48 48.72642 2.36877 295 ft 17 kts 72°
2026-04-30 18:48 48.72671 2.37027 294 ft 11 kts 74°
2026-04-30 18:48 48.72714 2.37058 291 ft 6 kts 342°
2026-04-30 18:48 48.72734 2.37049 295 ft 2 kts 343°
2026-04-30 18:49 48.72740 2.37046 291 ft 0 kts 343°